CW7016 Weather Reports


Display with metric or nautical units.
time (UTC)temp
F
wind
direction
speed
MPH
gust
MPH
rain 1hr
in
rain 24hr
in
rain mn
in
humidity
%
barometer
mb
20260508023721 53 142 0.0 1.0 0.00 0.22 0.17 79 1008.0
20260508023255 53 142 1.0 1.0 0.00 0.22 0.17 78 1008.1
20260508022742 54 142 0.0 0.0 0.00 0.29 0.17 77 1008.1
20260508022235 54 142 0.0 4.0 0.00 0.29 0.17 77 1008.1
20260508021724 54 142 0.0 4.0 0.00 0.29 0.17 77 1008.2
20260508021221 54 142 0.0 5.0 0.00 0.29 0.17 76 1008.1
20260508020736 54 142 1.0 5.0 0.00 0.29 0.17 76 1008.1
20260508020225 55 142 0.0 4.0 0.00 0.29 0.17 76 1008.0
20260508015743 55 142 1.0 7.0 0.00 0.29 0.17 75 1008.0
20260508015234 55 142 5.0 7.0 0.00 0.29 0.17 75 1007.9
20260508014723 55 171 3.0 5.0 0.00 0.29 0.17 74 1007.9
20260508014239 55 160 0.0 6.0 0.00 0.29 0.17 73 1007.8
20260508013726 55 175 3.0 6.0 0.00 0.29 0.17 73 1007.8
20260508013219 56 134 3.0 6.0 0.00 0.29 0.17 72 1007.7
20260508012738 56 175 2.0 5.0 0.00 0.29 0.17 71 1007.7
20260508012225 56 139 3.0 7.0 0.00 0.29 0.17 71 1007.7
20260508011721 56 178 2.0 7.0 0.00 0.29 0.17 70 1007.8
20260508011303 57 146 2.0 8.0 0.00 0.29 0.17 69 1007.7
20260508010733 57 181 2.0 8.0 0.00 0.29 0.17 69 1007.6
20260508010226 57 163 4.0 9.0 0.00 0.29 0.17 67 1007.6
20260508005742 58 126 4.0 9.0 0.00 0.29 0.17 66 1007.5
20260508005234 58 143 4.0 9.0 0.00 0.29 0.17 63 1007.5
20260508004723 58 103 1.0 10.0 0.00 0.29 0.17 61 1007.4
20260508004239 59 159 5.0 10.0 0.00 0.29 0.17 59 1007.3
20260508003730 59 150 5.0 6.0 0.00 0.29 0.17 53 1007.3
20260508003244 59 228 0.0 0.0 0.00 0.29 0.17 51 1007.1
20260508002735 60 228 0.0 1.0 0.00 0.29 0.17 51 1007.0
20260508002242 60 228 0.0 1.0 0.00 0.29 0.17 50 1006.9
20260508001733 61 234 0.0 1.0 0.00 0.29 0.17 49 1006.8
20260508001220 61 55 0.0 0.0 0.00 0.29 0.17 47 1006.8
20260508000737 61 55 0.0 0.0 0.00 0.29 0.17 46 1006.8
20260508000229 62 55 0.0 0.0 0.00 0.29 0.17 47 1006.6
20260507235739 62 55 0.0 0.0 0.00 0.29 0.17 46 1006.6
20260507235226 62 55 0.0 1.0 0.00 0.29 0.17 45 1006.7
20260507234740 63 55 0.0 1.0 0.00 0.29 0.17 45 1006.6
20260507234229 63 55 0.0 0.0 0.00 0.29 0.17 44 1006.6
20260507233805 63 55 0.0 0.0 0.00 0.29 0.17 43 1006.5
20260507233232 63 55 0.0 2.0 0.00 0.29 0.17 43 1006.5
20260507232723 63 55 0.0 2.0 0.00 0.29 0.17 42 1006.5
20260507232236 64 197 0.0 1.0 0.00 0.29 0.17 42 1006.4
20260507231725 64 13 0.0 1.0 0.00 0.29 0.17 42 1006.4
20260507231241 64 13 1.0 2.0 0.00 0.29 0.17 43 1006.3
20260507230729 65 13 1.0 3.0 0.00 0.29 0.17 42 1006.4
20260507230243 65 13 1.0 3.0 0.00 0.29 0.17 41 1006.3
20260507225757 65 29 0.0 4.0 0.00 0.29 0.17 42 1006.4
20260507225225 66 12 1.0 4.0 0.00 0.29 0.17 39 1006.3
20260507224718 66 360 2.0 7.0 0.00 0.29 0.17 38 1006.3
20260507224237 66 5 1.0 7.0 0.00 0.29 0.17 40 1006.2
20260507223744 67 17 5.0 7.0 0.00 0.29 0.17 40 1006.4
20260507223257 67 18 1.0 7.0 0.00 0.29 0.17 38 1006.4
20260507222732 66 331 0.0 5.0 0.00 0.29 0.17 39 1006.5
20260507222222 66 38 2.0 6.0 0.00 0.29 0.17 41 1006.4
20260507221736 66 298 2.0 6.0 0.00 0.29 0.17 38 1006.5
20260507221225 67 290 2.0 6.0 0.00 0.29 0.17 38 1006.4
20260507220801 67 5 1.0 6.0 0.00 0.29 0.17 39 1006.5
20260507220301 68 306 1.0 5.0 0.00 0.29 0.17 36 1006.4
20260507215747 68 55 0.0 7.0 0.00 0.29 0.17 37 1006.5
20260507215241 68 39 1.0 7.0 0.00 0.29 0.17 38 1006.4
20260507214732 68 271 1.0 6.0 0.00 0.29 0.17 37 1006.4
20260507214221 67 344 2.0 6.0 0.00 0.29 0.17 39 1006.5
20260507213737 67 320 4.0 6.0 0.00 0.29 0.17 37 1006.6
20260507213244 67 312 2.0 7.0 0.00 0.29 0.17 37 1006.5
20260507212738 68 265 4.0 9.0 0.00 0.29 0.17 36 1006.4
20260507212225 68 280 6.0 9.0 0.00 0.29 0.17 35 1006.4
20260507211741 68 311 1.0 9.0 0.00 0.29 0.17 36 1006.3
20260507211233 69 272 6.0 11.0 0.00 0.29 0.17 38 1006.3
20260507210722 68 355 2.0 8.0 0.00 0.29 0.17 42 1006.2
20260507210237 69 210 2.0 8.0 0.00 0.29 0.17 36 1006.2
20260507205744 68 355 3.0 8.0 0.00 0.29 0.17 41 1006.1
20260507205255 68 40 6.0 8.0 0.00 0.29 0.17 40 1006.1
20260507204741 68 304 5.0 7.0 0.00 0.29 0.17 37 1006.3
20260507204237 68 299 1.0 11.0 0.00 0.29 0.17 37 1006.2
20260507203725 68 360 1.0 11.0 0.00 0.29 0.17 42 1006.2
20260507203240 68 65 1.0 5.0 0.00 0.29 0.17 41 1006.1
20260507202729 68 304 1.0 12.0 0.00 0.29 0.17 39 1006.2
20260507202243 68 59 3.0 12.0 0.00 0.29 0.17 43 1006.2
20260507201734 68 311 1.0 6.0 0.00 0.29 0.17 41 1006.3
20260507201242 67 319 2.0 10.0 0.00 0.29 0.17 41 1006.4
20260507200739 68 283 4.0 10.0 0.00 0.29 0.17 39 1006.4
20260507200229 68 277 6.0 9.0 0.00 0.29 0.17 40 1006.4
20260507195721 67 292 3.0 9.0 0.00 0.29 0.17 38 1006.4
20260507195235 68 227 3.0 9.0 0.00 0.29 0.17 41 1006.4
20260507194729 68 279 3.0 10.0 0.00 0.29 0.17 37 1006.5
20260507194244 68 320 4.0 10.0 0.00 0.29 0.17 38 1006.6
20260507193735 69 340 3.0 7.0 0.00 0.29 0.17 41 1006.7
20260507193247 69 298 2.0 7.0 0.00 0.29 0.17 41 1006.7
20260507192739 69 336 2.0 7.0 0.00 0.29 0.17 41 1006.6
20260507192228 68 312 3.0 6.0 0.00 0.29 0.17 44 1006.7
20260507191743 68 297 1.0 7.0 0.00 0.29 0.17 38 1006.9
20260507191233 68 285 2.0 7.0 0.00 0.29 0.17 37 1007.0
20260507190742 68 355 1.0 7.0 0.00 0.29 0.17 45 1007.1
20260507190232 68 281 5.0 7.0 0.00 0.29 0.17 40 1007.1
20260507185743 68 285 3.0 11.0 0.00 0.29 0.17 39 1007.0
20260507185234 68 43 1.0 11.0 0.00 0.29 0.17 41 1007.1
20260507184721 67 46 6.0 11.0 0.00 0.29 0.17 46 1007.2
20260507184235 67 218 4.0 8.0 0.00 0.29 0.17 43 1007.2
20260507183755 67 16 3.0 9.0 0.00 0.29 0.17 46 1007.3
20260507183223 67 311 2.0 9.0 0.00 0.29 0.17 47 1007.4
20260507182738 66 10 2.0 10.0 0.00 0.29 0.17 46 1007.5
20260507182233 66 138 3.0 10.0 0.00 0.29 0.17 45 1007.6
20260507181742 65 59 5.0 7.0 0.00 0.29 0.17 48 1007.6
20260507181304 65 19 3.0 7.0 0.00 0.29 0.17 49 1007.6
20260507180734 65 36 5.0 7.0 0.00 0.29 0.17 47 1007.8
20260507180225 65 271 2.0 7.0 0.00 0.29 0.17 42 1007.7
20260507175739 65 19 4.0 13.0 0.00 0.29 0.17 51 1007.8
20260507175252 65 21 6.0 13.0 0.00 0.29 0.17 46 1007.7
20260507174744 64 14 7.0 11.0 0.00 0.29 0.17 52 1007.9
20260507174254 64 5 1.0 10.0 0.00 0.29 0.17 45 1008.0
20260507173721 63 25 3.0 9.0 0.00 0.29 0.17 47 1008.2
20260507173235 63 360 5.0 8.0 0.00 0.29 0.17 52 1008.3
20260507172743 63 192 6.0 14.0 0.00 0.29 0.17 42 1008.3
20260507172235 64 325 9.0 14.0 0.00 0.29 0.17 45 1008.3
20260507171722 64 284 5.0 12.0 0.00 0.29 0.17 41 1008.5
20260507171237 64 12 2.0 9.0 0.00 0.29 0.17 46 1008.5
20260507170724 64 317 4.0 10.0 0.00 0.29 0.17 49 1008.5
20260507170240 64 252 5.0 10.0 0.00 0.29 0.17 49 1008.6
20260507165728 63 285 3.0 10.0 0.00 0.29 0.17 47 1008.6
20260507165221 63 257 2.0 9.0 0.00 0.29 0.17 51 1008.6
20260507164802 63 319 2.0 14.0 0.00 0.29 0.17 47 1008.6
20260507164249 63 244 3.0 14.0 0.00 0.29 0.17 49 1008.7
20260507163801 63 317 5.0 8.0 0.00 0.29 0.17 52 1008.9
20260507163300 62 18 3.0 9.0 0.00 0.29 0.17 52 1008.8
20260507162730 62 67 2.0 10.0 0.00 0.30 0.17 51 1008.9
20260507162220 62 315 4.0 10.0 0.00 0.30 0.17 54 1009.0
20260507161738 62 11 5.0 9.0 0.00 0.30 0.17 56 1009.0
20260507161227 61 248 1.0 9.0 0.00 0.30 0.17 58 1009.2
20260507160741 61 20 3.0 13.0 0.00 0.30 0.17 57 1009.2
20260507160230 61 20 7.0 13.0 0.00 0.30 0.17 59 1009.3
20260507155743 61 303 3.0 11.0 0.00 0.30 0.17 57 1009.3
20260507155234 60 355 6.0 10.0 0.00 0.30 0.17 53 1009.3
20260507154744 60 44 6.0 9.0 0.00 0.30 0.17 54 1009.4
20260507154233 60 315 4.0 9.0 0.00 0.30 0.17 60 1009.5
20260507153739 60 276 4.0 7.0 0.00 0.30 0.17 55 1009.7
20260507153229 59 331 3.0 8.0 0.00 0.30 0.17 62 1009.6
20260507152744 59 257 7.0 11.0 0.00 0.30 0.17 54 1009.9
20260507152234 59 306 4.0 11.0 0.00 0.30 0.17 54 1010.1
20260507151723 59 286 4.0 8.0 0.00 0.30 0.17 56 1010.0
20260507151237 59 311 1.0 8.0 0.00 0.30 0.17 59 1010.1
20260507150724 59 5 3.0 10.0 0.00 0.30 0.17 58 1010.0
20260507150239 58 21 7.0 12.0 0.00 0.30 0.17 61 1010.0
20260507145727 58 290 3.0 12.0 0.00 0.30 0.17 64 1010.2
20260507145221 58 40 1.0 8.0 0.00 0.30 0.17 65 1010.1
20260507144756 58 346 4.0 9.0 0.00 0.30 0.17 62 1010.2
20260507144223 57 302 2.0 9.0 0.00 0.30 0.17 62 1010.2
20260507143737 57 298 4.0 8.0 0.00 0.30 0.17 65 1010.3
20260507143229 56 29 2.0 6.0 0.00 0.30 0.17 70 1010.3
20260507142743 56 333 0.0 9.0 0.00 0.30 0.17 71 1010.4
20260507142235 56 338 4.0 9.0 0.00 0.30 0.17 68 1010.5
20260507141722 56 271 1.0 9.0 0.00 0.30 0.17 71 1010.5
20260507141242 56 322 1.0 6.0 0.00 0.30 0.17 72 1010.5
20260507140758 55 355 1.0 5.0 0.00 0.30 0.17 77 1010.5
20260507140245 55 343 0.0 10.0 0.00 0.30 0.17 75 1010.5
20260507135739 55 296 2.0 10.0 0.00 0.30 0.17 78 1010.4
20260507135227 55 311 2.0 8.0 0.00 0.30 0.17 76 1010.5
20260507134800 54 261 2.0 8.0 0.00 0.30 0.17 75 1010.6
20260507134231 54 51 1.0 6.0 0.00 0.30 0.17 81 1010.5
20260507133722 53 255 2.0 5.0 0.00 0.30 0.17 80 1010.5
20260507133238 53 327 1.0 5.0 0.00 0.30 0.17 82 1010.6
20260507132747 53 5 1.0 6.0 0.00 0.30 0.17 83 1010.4
20260507132307 52 11 1.0 6.0 0.00 0.30 0.17 82 1010.4
20260507131733 52 329 2.0 5.0 0.00 0.30 0.17 83 1010.4
20260507131222 52 298 3.0 6.0 0.00 0.30 0.17 85 1010.4
20260507130738 52 323 1.0 7.0 0.00 0.30 0.17 84 1010.5
20260507130227 52 316 2.0 7.0 0.00 0.30 0.17 86 1010.4
20260507125801 52 269 2.0 7.0 0.00 0.30 0.17 86 1010.5
20260507125232 51 345 4.0 5.0 0.00 0.30 0.17 88 1010.4
20260507124743 51 327 2.0 5.0 0.00 0.30 0.17 88 1010.5
20260507124235 51 280 1.0 5.0 0.00 0.30 0.17 88 1010.6
20260507123724 51 280 1.0 5.0 0.00 0.30 0.17 88 1010.4
20260507123240 51 316 0.0 4.0 0.00 0.30 0.17 89 1010.5
20260507122727 51 222 0.0 4.0 0.00 0.30 0.17 89 1010.6
20260507122222 51 312 1.0 7.0 0.00 0.30 0.17 89 1010.6
20260507121738 51 305 3.0 7.0 0.00 0.30 0.17 88 1010.5
20260507121226 51 292 1.0 4.0 0.00 0.30 0.17 89 1010.5
20260507120739 51 296 2.0 4.0 0.00 0.30 0.17 88 1010.6
20260507120234 51 349 2.0 5.0 0.00 0.30 0.17 89 1010.6
20260507115741 51 295 1.0 7.0 0.00 0.30 0.17 89 1010.5
20260507115232 51 295 2.0 7.0 0.00 0.30 0.17 88 1010.5
20260507114721 51 252 1.0 4.0 0.00 0.30 0.17 90 1010.5
20260507114257 51 321 3.0 6.0 0.00 0.30 0.17 90 1010.5
20260507113754 51 303 1.0 6.0 0.00 0.30 0.17 91 1010.4
20260507113243 51 308 2.0 4.0 0.00 0.30 0.17 91 1010.3
20260507112734 51 271 0.0 5.0 0.00 0.30 0.17 91 1010.2
20260507112224 51 302 1.0 5.0 0.00 0.30 0.17 91 1010.2
20260507111741 50 290 1.0 5.0 0.00 0.30 0.17 91 1010.1
20260507111233 50 297 1.0 3.0 0.00 0.30 0.17 92 1010.0
20260507110722 50 294 1.0 4.0 0.00 0.30 0.17 92 1009.8
20260507110259 50 253 1.0 5.0 0.00 0.30 0.17 91 1009.8
20260507105727 50 253 1.0 5.0 0.00 0.30 0.17 91 1009.6
20260507105222 50 263 2.0 4.0 0.00 0.30 0.17 92 1009.7
20260507104803 50 263 1.0 4.0 0.00 0.30 0.17 92 1009.6
20260507104232 50 262 1.0 4.0 0.00 0.30 0.17 92 1009.6
20260507103743 50 316 1.0 4.0 0.00 0.30 0.17 92 1009.6
20260507103233 50 316 1.0 3.0 0.00 0.30 0.17 92 1009.5
20260507102744 50 316 1.0 3.0 0.00 0.30 0.17 92 1009.4
20260507102233 50 316 1.0 3.0 0.00 0.30 0.17 92 1009.2
20260507101723 50 316 1.0 2.0 0.00 0.30 0.17 92 1009.1
20260507101238 50 316 0.0 4.0 0.00 0.30 0.17 92 1009.0
20260507100723 50 316 1.0 4.0 0.00 0.30 0.17 92 1009.3
20260507100240 50 316 1.0 2.0 0.00 0.30 0.17 92 1009.2
20260507095732 50 301 1.0 4.0 0.00 0.30 0.17 92 1009.2
20260507095244 50 301 0.0 4.0 0.00 0.30 0.17 92 1009.2
20260507094755 50 315 1.0 2.0 0.00 0.30 0.17 92 1009.1
20260507094222 50 315 1.0 2.0 0.00 0.30 0.17 91 1009.1
20260507093737 50 315 1.0 2.0 0.00 0.30 0.17 91 1009.1
20260507093230 50 315 0.0 1.0 0.00 0.30 0.17 91 1009.1
20260507092744 50 315 0.0 3.0 0.00 0.30 0.17 91 1009.0
20260507092255 50 315 1.0 3.0 0.00 0.30 0.17 91 1008.8
20260507091722 50 290 1.0 4.0 0.00 0.30 0.17 91 1009.0
20260507091240 50 289 3.0 4.0 0.00 0.30 0.17 91 1008.9
20260507090748 50 294 0.0 6.0 0.01 0.30 0.17 91 1009.0
20260507090241 50 285 2.0 6.0 0.01 0.30 0.17 91 1008.8
20260507085731 50 325 0.0 4.0 0.01 0.30 0.17 91 1008.7
20260507085221 50 324 2.0 5.0 0.01 0.30 0.17 91 1008.8
20260507084739 50 302 1.0 5.0 0.01 0.30 0.17 91 1008.7
20260507084233 50 273 0.0 5.0 0.01 0.30 0.17 91 1008.7
20260507083749 50 273 1.0 6.0 0.01 0.30 0.17 91 1008.6
20260507083244 50 317 2.0 6.0 0.01 0.30 0.17 91 1008.6
20260507082801 50 302 2.0 8.0 0.01 0.30 0.17 91 1008.5
20260507082233 50 319 1.0 8.0 0.01 0.30 0.17 90 1008.6
20260507081739 50 5 1.0 7.0 0.01 0.30 0.17 90 1008.7
20260507081231 50 342 6.0 7.0 0.01 0.30 0.17 90 1008.8
20260507080742 50 294 2.0 5.0 0.00 0.29 0.16 90 1008.9
20260507080232 50 286 1.0 5.0 0.00 0.29 0.16 90 1009.0
20260507075721 51 11 2.0 5.0 0.00 0.29 0.16 90 1009.0
20260507075237 51 281 1.0 7.0 0.00 0.29 0.16 90 1009.3
20260507074744 51 257 4.0 7.0 0.01 0.29 0.16 90 1009.4
20260507074241 51 279 2.0 6.0 0.01 0.29 0.16 90 1009.3
20260507073735 51 279 1.0 6.0 0.02 0.29 0.16 90 1009.2
20260507073245 51 290 2.0 8.0 0.02 0.29 0.16 90 1009.1
20260507072735 51 5 3.0 6.0 0.02 0.29 0.16 90 1008.9
20260507072244 51 355 1.0 8.0 0.02 0.29 0.16 90 1009.1
20260507071756 51 289 2.0 10.0 0.03 0.29 0.16 90 1009.2
20260507071222 51 234 2.0 10.0 0.03 0.29 0.16 90 1009.0
20260507070803 51 300 3.0 7.0 0.03 0.29 0.16 89 1008.8
20260507070250 51 305 3.0 7.0 0.04 0.29 0.16 90 1008.8
20260507065743 52 5 1.0 7.0 0.04 0.29 0.16 90 1008.7
20260507065234 52 302 2.0 7.0 0.06 0.29 0.16 90 1008.7
20260507064723 52 328 2.0 7.0 0.11 0.28 0.15 90 1009.0
20260507064240 52 25 1.0 4.0 0.14 0.28 0.15 90 1008.8
20260507063731 52 266 1.0 5.0 0.14 0.27 0.14 90 1008.7
20260507063244 52 329 1.0 5.0 0.14 0.27 0.14 89 1009.0
20260507062736 52 281 3.0 6.0 0.14 0.27 0.14 89 1009.4
20260507062226 52 270 1.0 4.0 0.14 0.27 0.14 88 1008.5
20260507061742 53 360 0.0 6.0 0.13 0.26 0.13 88 1008.4
20260507061248 53 261 3.0 7.0 0.13 0.26 0.13 88 1009.1
20260507060719 53 319 3.0 7.0 0.13 0.26 0.13 88 1008.9
20260507060238 53 252 4.0 5.0 0.12 0.25 0.12 87 1009.0
20260507055725 54 314 1.0 5.0 0.12 0.25 0.12 86 1008.6
20260507055219 54 298 0.0 8.0 0.10 0.23 0.10 85 1008.3
20260507054737 55 38 2.0 13.0 0.05 0.18 0.05 84 1008.5
20260507054225 55 247 6.0 13.0 0.01 0.14 0.01 83 1009.5
20260507053740 55 302 0.0 7.0 0.00 0.13 0.00 83 1008.5
20260507053229 55 291 3.0 6.0 0.00 0.13 0.00 82 1008.2
20260507052721 55 316 1.0 2.0 0.00 0.13 0.00 82 1007.7
20260507052238 55 248 0.0 6.0 0.00 0.13 0.00 82 1007.7
20260507051746 55 315 3.0 6.0 0.00 0.13 0.00 81 1008.2
20260507051239 55 360 1.0 6.0 0.00 0.13 0.00 82 1007.9
20260507050729 56 279 0.0 6.0 0.00 0.13 0.00 82 1007.9
20260507050221 56 304 1.0 8.0 0.00 0.13 0.00 81 1007.7
20260507045739 56 316 3.0 8.0 0.00 0.13 0.00 81 1007.6
20260507045256 56 304 1.0 5.0 0.00 0.13 0.00 82 1007.5
20260507044745 56 321 2.0 6.0 0.00 0.13 0.00 82 1007.6
20260507044235 56 28 1.0 8.0 0.00 0.13 0.00 83 1007.4
20260507043722 56 321 4.0 8.0 0.00 0.13 0.00 83 1007.8
20260507043237 56 360 0.0 6.0 0.00 0.13 0.00 84 1007.8
20260507042729 56 316 3.0 6.0 0.00 0.13 0.00 84 1008.0
20260507042238 57 342 1.0 5.0 0.00 0.13 0.00 85 1008.0
20260507041728 57 302 1.0 10.0 0.00 0.13 0.00 85 1008.0
20260507041243 57 40 1.0 10.0 0.00 0.13 0.00 85 1008.0
20260507040734 57 325 3.0 6.0 0.00 0.13 0.13 86 1008.0
20260507040243 57 342 1.0 4.0 0.00 0.13 0.13 86 1007.7
20260507035733 58 329 2.0 7.0 0.01 0.13 0.13 86 1007.6
20260507035222 58 340 2.0 5.0 0.01 0.13 0.13 86 1007.6
20260507034739 58 316 3.0 9.0 0.01 0.13 0.13 85 1007.8
20260507034246 59 311 3.0 9.0 0.03 0.13 0.13 85 1007.9
20260507033738 59 342 2.0 7.0 0.05 0.13 0.13 85 1007.9
20260507033226 59 5 1.0 8.0 0.05 0.13 0.13 84 1007.8
20260507032718 60 326 3.0 8.0 0.05 0.13 0.13 83 1007.8
20260507032235 61 306 0.0 9.0 0.06 0.13 0.13 84 1007.6
20260507031721 63 275 6.0 15.0 0.07 0.13 0.13 83 1007.5
20260507031234 64 31 5.0 15.0 0.08 0.13 0.13 86 1007.2
20260507030742 64 261 1.0 4.0 0.10 0.13 0.13 89 1007.1
20260507030235 64 294 1.0 4.0 0.12 0.13 0.13 89 1007.1
20260507025744 65 224 1.0 4.0 0.12 0.13 0.13 89 1007.0
20260507025232 65 261 0.0 7.0 0.11 0.12 0.12 89 1007.1
20260507024741 65 150 2.0 7.0 0.11 0.12 0.12 88 1007.0
20260507024232 65 210 3.0 6.0 0.09 0.10 0.10 88 1007.0